Home   Weather   London   Past weeks

Flag for United Kingdom Past Weather in London, England, United Kingdom — Yesterday and Last 2 Weeks

Now
59 °F

Partly sunny.


Feels Like: 57 °F
Forecast: 58 / 69 °F
Wind: 10 mph from Southwest

Location: Northolt

Current Time: Aug 18, 2017 at 9:21:48 pm

Latest Report: Aug 18, 2017 at 7:50 pm


Visibility: N/A

Pressure: 29.89 "Hg

Humidity: 77%

Dew Point: 52 °F

Location of LondonLocation

Past Weather in London — Graph

°F

London Temperature Yesterday

Maximum temperature yesterday: 73 °F (at 12:50 pm)
Minimum temperature yesterday: 59 °F (at 12:50 am)
Average temperature yesterday: 67 °F

High & Low Weather Summary for the Past Weeks

 TemperatureHumidityPressure
High73 °F (Aug 13, 3:50 pm)100% (Aug 6, 4:50 am)30.24 "Hg (Aug 6, 4:50 am)
Low46 °F (Aug 11, 4:50 am)38% (Aug 13, 1:50 pm)29.77 "Hg (Aug 3, 7:50 pm)
Average62 °F76%30.00 "Hg
* Reported Aug 3 7:50 pm — Aug 18 7:50 pm, London. Weather by CustomWeather, © 2017

Note: Actual official high and low records may vary slightly from our data, if they occured in-between our weather recording intervals... More about our weather records

Advertising

London Weather History for the Previous 24 Hours

Scroll right to see more
 ConditionsComfort  
Time TempWeatherWind HumidityBarometerVisibility
7:50 pm
Fri, Aug 18
59 °FPartly sunny.10 mph77%29.89 "HgN/A
6:50 pm59 °FSprinkles. Partly sunny.10 mph82%29.86 "HgN/A
5:50 pm61 °FScattered clouds.16 mph72%29.86 "HgN/A
4:50 pm59 °FPartly sunny.16 mph77%29.86 "HgN/A
3:50 pm59 °FBroken clouds.15 mph77%29.86 "HgN/A
2:50 pm61 °FSprinkles. Partly sunny.12 mph77%29.86 "HgN/A
1:50 pm59 °FSprinkles. Broken clouds.8 mph88%29.86 "HgN/A
1:25 pm61 °FThunderstorms. Partly sunny.20 mph72%29.83 "HgN/A
12:50 pm66 °FScattered clouds.15 mph68%29.83 "HgN/A
11:50 am68 °FPassing clouds.13 mph60%29.83 "HgN/A
10:50 am66 °FPassing clouds.13 mph64%29.86 "HgN/A
9:50 am64 °FPassing clouds.15 mph68%29.86 "HgN/A
9:14 am63 °FScattered clouds.14 mph73%29.83 "HgN/A
8:50 am61 °FPassing clouds.15 mph83%29.83 "HgN/A
7:50 am59 °FPassing clouds.12 mph88%29.83 "HgN/A
6:50 am59 °FPassing clouds.12 mph88%29.83 "HgN/A
5:50 am59 °FPartly sunny.9 mph100%29.80 "HgN/A
4:50 am61 °FPassing clouds.7 mph94%29.80 "Hg4 mi
3:50 am61 °FPassing clouds.8 mph88%29.83 "HgN/A
2:50 am59 °FPassing clouds.8 mph94%29.83 "HgN/A
1:50 am59 °FPassing clouds.6 mph88%29.86 "HgN/A
12:50 am61 °FPassing clouds.6 mph88%29.86 "HgN/A
11:50 pm
Thu, Aug 17
61 °FPassing clouds.6 mph88%29.86 "HgN/A
10:50 pm63 °FPassing clouds.9 mph88%29.86 "HgN/A
9:50 pm64 °FPassing clouds.10 mph83%29.86 "HgN/A
Weather by CustomWeather, © 2017

See weather overviewHow to use our weather pages